#timestamp,LO_Frequency,Hit,StdDev 
1594504815.2,286046994.4,P
1594504835.0,286046993.4,P
1594504835.9,286046993.4,Y
1594504855.8,286047001.0,P
1594504875.6,286047001.1,N
1594504895.5,286046999.7,N
1594504915.3,286046999.3,N
1594504935.1,286046997.4,N
1594504955.9,286046995.0,N
1594504975.7,286046999.1,N
1594504995.6,286046995.4,N
1594505015.4,286046998.0,N
1594505035.2,286046999.1,N
1594505055.1,286046997.3,N
1594505056.0,286046997.3,N
1594505075.8,286046996.8,N
1594505095.7,286046997.5,N
1594505115.5,286046997.5,N
1594505135.3,286046997.9,N
1594505155.2,286046997.6,N
1594505175.0,286046995.7,N
1594505175.9,286046995.7,N
1594505195.8,286046996.0,N
1594505215.6,286046997.4,N
1594505235.4,286046995.2,N
1594505255.3,286046996.5,N
1594505275.1,286046995.7,N
1594505295.9,286046996.0,N
1594505315.7,286046997.1,N
1594505335.6,286046994.9,Y
1594505355.4,286046998.8,P
1594505375.2,286046998.7,N
1594505395.1,286047001.2,N
1594505396.0,286047001.2,N
1594505415.8,286047001.6,N
1594505435.7,286047002.1,N
1594505455.5,286047003.8,N
1594505475.3,286047006.0,N
1594505495.2,286047003.8,N
1594505515.0,286047003.1,N
1594505515.9,286047003.1,N
1594505535.8,286047003.2,N
1594505555.6,286047003.7,N
1594505575.4,286047005.9,N
1594505595.3,286047003.4,N
1594505615.1,286047005.2,N
1594505635.9,286047006.0,N
1594505655.7,286047004.0,N
1594505675.5,286046999.7,N
1594505695.4,286047000.9,N
1594505715.2,286047000.4,N
1594505735.0,286047004.4,N
1594505735.9,286047004.4,N
1594505755.8,286047003.9,N
1594505775.6,286047005.5,N
1594505795.5,286047005.8,N
1594505815.3,286047006.0,N
1594505835.1,286047003.5,N
1594505855.9,286047004.1,N
1594505875.7,286047002.6,N
1594505895.6,286047002.3,N
1594505915.4,286047002.1,N
1594505935.2,286047001.5,N
1594505955.1,286047000.8,N
1594505956.0,286047000.8,N
1594505975.8,286047000.8,N
1594505995.7,286046998.4,N
1594506015.5,286047000.1,N
1594506035.3,286047001.5,N
1594506055.2,286047001.7,N
1594506075.0,286047003.2,N
1594506075.9,286047003.2,N
1594506095.7,286047004.0,N
1594506115.6,286047003.5,N
1594506135.4,286047004.1,N
1594506155.3,286047004.2,N
1594506175.1,286047003.5,N
1594506195.8,286047005.6,N
1594506215.7,286047003.4,N
1594506235.5,286047003.3,N
1594506255.4,286047003.7,N
1594506275.2,286047003.1,N
1594506295.0,286047000.4,N
1594506295.9,286047000.4,N
1594506315.8,286046999.8,N
1594506335.6,286046999.8,N
1594506355.4,286047002.8,N
1594506375.3,286047002.3,N
1594506395.1,286047005.5,Y
1594506415.9,286047003.7,P
1594506435.7,286047002.9,P
1594506455.5,286047003.7,P
1594506475.4,286047002.1,Y
1594506495.2,286046995.3,P
1594506515.1,286046997.6,N
1594506516.0,286046997.6,N
1594506535.8,286046995.3,N
1594506555.6,286046999.3,N
1594506575.5,286046998.7,N
1594506595.3,286046998.9,N
1594506615.2,286047011.9,Y
1594506635.9,286047002.4,P
1594506655.7,286046999.9,N
1594506675.1,286047001.1,N
1594506695.9,286047000.2,N
1594506715.7,286047000.3,N
1594506735.5,286047000.4,N
1594506755.4,286047001.5,N
1594506775.2,286047000.1,N
1594506795.1,286046998.9,N
1594506796.0,286046998.9,N
1594506815.8,286047001.0,N
1594506835.7,286046999.4,N
1594506855.5,286046998.8,N
1594506875.3,286046998.4,N
1594506895.2,286046999.0,N
1594506915.0,286046999.3,N
1594506915.9,286046999.3,N
1594506935.8,286046999.3,N
1594506955.6,286046999.3,N
1594506975.4,286047000.5,N
1594506995.3,286046999.1,N
1594507015.1,286046998.7,N
1594507035.9,286047000.4,N
1594507055.7,286047001.4,N
1594507075.5,286047002.4,N
1594507095.4,286047000.1,N
1594507115.2,286047002.4,N
1594507135.0,286047002.4,N
1594507135.9,286047002.4,N
1594507155.8,286047002.4,N
1594507175.6,286046998.2,N
1594507195.5,286047000.4,N
1594507215.3,286047001.7,N
1594507235.1,286046998.5,N
1594507255.9,286046998.5,N
1594507275.7,286047002.4,N
1594507295.6,286047004.0,N
1594507315.4,286047003.0,N
1594507335.2,286047001.3,N
1594507355.1,286047005.4,Y
1594507356.0,286047005.4,P
1594507375.8,286047005.1,N
1594507395.7,286047009.2,P
1594507415.5,286047004.6,N
1594507435.3,286047004.6,N
1594507455.2,286047004.3,N
1594507475.0,286047001.9,N
1594507475.9,286047001.9,N
1594507495.8,286046999.9,N
1594507515.6,286046998.7,N
1594507535.4,286046996.9,N
1594507555.3,286047002.7,N
1594507575.1,286047002.4,N
1594507595.8,286047004.3,N
1594507615.7,286047000.2,N
1594507635.5,286046998.9,N
1594507655.4,286047000.4,N
1594507675.2,286047001.9,N
1594507695.0,286047001.8,N
1594507696.0,286047001.8,N
1594507715.8,286047000.1,N
1594507735.6,286047001.9,N
1594507755.5,286047001.3,N
1594507775.3,286047001.4,N
1594507795.1,286047005.4,N
1594507815.9,286047004.4,N
1594507835.7,286047002.0,N
1594507855.6,286047001.5,N
1594507875.4,286047005.8,N
1594507895.2,286047003.3,N
1594507915.1,286047006.7,N
1594507916.0,286047006.7,N
1594507935.8,286047003.0,N
1594507955.6,286047001.6,N
1594507975.5,286047002.9,N
1594507995.3,286047003.6,N
1594508015.2,286047001.6,N
1594508035.9,286047001.5,N
1594508055.7,286047003.1,N
1594508075.6,286047001.3,N
1594508095.4,286047000.2,N
1594508115.3,286047000.4,N
1594508135.1,286047002.5,N
1594508136.0,286047002.5,N
1594508155.8,286047000.1,N
1594508175.7,286047004.4,N
1594508195.5,286047003.1,N
1594508215.4,286047005.5,Y
1594508235.2,286047003.8,P
1594508255.0,286047001.3,N
1594508255.9,286047001.3,N
1594508275.8,286047002.5,N
1594508295.6,286047000.9,N
1594508315.5,286047000.8,N
1594508335.3,286047000.6,N
1594508355.1,286047000.0,N
1594508375.9,286047000.4,N
1594508395.7,286046998.4,N
